Temperature
20 19 20 19 19 19 19 19 19 19 19 19 19 19 19 19 19 19 19 19 19 19 19 19 19 19 18 18 18 18 18 18 18 18 18 18 18 18 18 18 18 17 18
20 19 19 19 19 19 19 19 19 19 19 19 19 19 19 19 19 19 19 19 19 19 19 19 19 18 18 18 18 18 18 18 18 18 18 18 18 18 18 18 18 17 18
20 19 19 19 19 19 19 19 19 19 19 19 19 19 19 19 19 19 19 19 19 19 19 19 18 18 18 18 18 18 18 18 18 18 18 17 17 18 18 18 18 18 18
19 19 19 19 19 19 19 19 19 19 19 19 19 19 19 19 19 19 18 18 18 18 19 18 18 18 18 18 18 18 18 18 18 18 18 17 17 18 18 18 18 17 18
19 19 19 19 19 19 19 19 19 19 19 19 19 19 19 19 18 18 18 18 18 18 18 18 18 18 18 18 18 18 18 18 18 18 17 17 17 18 18 18 18 17 17
19 19 19 19 19 19 19 19 19 19 19 19 19 19 18 18 18 18 18 18 18 18 18 18 18 18 18 18 18 18 18 18 18 18 18 17 17 18 18 18 18 17 17
20 19 19 19 19 19 19 19 18 18 18 18 18 18 18 18 18 18 18 18 18 18 18 18 18 18 18 18 18 18 18 18 17 18 18 18 17 18 18 18 18 17 17
20 19 19 19 19 19 19 19 19 19 18 18 18 18 18 18 18 18 18 18 18 18 18 18 18 18 18 18 18 18 18 18 17 18 18 18 18 18 18 18 18 17 17
20 19 19 19 19 19 19 19 19 19 18 18 18 18 18 18 18 18 18 18 18 18 18 18 18 18 18 18 18 18 18 18 18 18 18 18 18 18 18 17 18 18 17
20 19 19 19 19 19 19 19 19 19 18 18 18 18 18 18 18 18 18 18 18 18 18 18 18 18 18 18 18 18 18 18 18 18 18 18 18 18 17 17 17 18 18
19 19 19 19 19 19 19 18 18 18 18 18 18 18 18 18 18 18 18 18 18 18 18 18 18 18 18 18 18 18 18 18 18 18 18 18 18 18 17 17 17 17 17
20 19 19 19 19 19 18 18 18 18 18 18 18 18 18 18 18 18 18 18 18 18 18 18 18 18 18 18 18 18 18 18 18 18 18 18 18 18 17 17 17 17 17
20 19 19 19 19 19 19 18 18 18 18 18 18 18 18 18 18 18 18 18 18 18 18 18 18 18 18 18 18 18 18 18 18 18 18 18 18 17 17 17 17 17 17
19 19 19 19 19 19 19 19 18 18 18 18 18 18 18 18 18 18 18 18 18 18 18 18 18 18 17 17 17 18 18 18 18 18 18 18 18 17 17 17 17 17 17
19 19 19 19 19 19 19 19 18 18 18 18 18 18 18 18 18 18 18 18 18 18 18 18 18 17 17 17 18 18 18 18 18 18 18 18 18 18 18 17 17 17 17
19 19 19 19 19 19 19 18 18 18 18 18 18 18 18 18 18 18 18 18 18 18 18 18 17 17 18 18 18 18 18 18 18 17 17 18 18 18 18 17 17 17 17
19 19 19 19 19 19 18 18 18 18 18 18 18 18 18 18 18 18 18 18 18 18 18 18 17 17 18 18 18 18 18 18 18 17 17 17 17 17 18 17 17 17 17
19 19 19 19 19 19 19 19 18 18 18 18 18 18 18 18 18 18 18 18 18 18 18 18 18 18 18 18 18 18 18 18 17 17 17 17 17 17 17 17 17 17 17
19 19 19 19 19 19 19 18 18 18 18 18 18 18 18 18 18 18 18 18 18 18 18 18 18 18 18 18 18 18 18 18 17 17 17 17 17 17 17 17 17 17 17
19 19 19 19 19 19 18 18 18 18 18 18 18 18 18 18 18 18 18 18 18 18 18 18 18 17 17 17 18 18 18 18 18 18 17 17 17 17 17 17 17 17 17
19 19 19 19 19 19 18 18 18 18 18 18 18 18 18 18 18 18 18 18 18 18 18 18 18 17 18 17 18 18 18 18 18 18 18 17 17 17 17 17 17 16 16
19 19 19 19 19 19 19 19 18 18 18 18 18 18 18 18 18 18 18 18 18 18 17 18 17 17 17 17 18 19 19 19 18 18 18 17 17 17 17 17 17 17 16
20 19 19 19 19 19 19 18 18 18 18 18 17 18 18 18 18 18 18 18 18 18 17 17 17 17 17 17 17 18 19 19 19 18 18 18 17 17 17 17 17 17 16
20 19 19 19 19 19 19 18 18 18 18 17 17 17 17 17 17 18 18 18 17 17 17 17 17 17 17 17 17 17 17 18 18 18 18 18 17 17 17 17 17 17 16
20 20 19 19 19 19 18 18 18 18 18 18 17 17 17 17 17 17 17 17 17 17 17 17 17 17 17 17 17 17 17 17 17 18 18 18 18 17 17 17 17 17 16
20 20 19 19 19 19 19 18 18 18 18 17 17 17 17 17 17 17 17 17 17 17 17 17 17 17 17 17 17 17 17 17 17 17 17 17 18 18 17 17 17 16 16
Wind_Speed
4 5 8 5 5 5 6 6 6 6 6 6 6 6 6 6 6 6 6 6 7 8 8 9 9 9 9 10 10 10 11 11 11 11 10 10 10 10 10 9 9 8 10
5 6 8 6 5 5 6 6 6 5 5 5 5 5 5 5 5 5 6 6 7 7 8 9 9 9 9 9 9 10 10 11 11 11 11 11 10 10 9 8 6 7 10
5 6 7 6 5 5 6 6 5 6 6 5 5 5 5 5 5 7 6 7 7 7 8 8 8 8 9 10 10 10 10 10 10 11 12 10 10 10 10 9 8 8 10
5 6 6 6 5 5 6 5 5 5 5 5 5 5 6 6 7 8 7 7 7 7 7 7 7 7 8 8 9 10 10 10 10 11 10 9 9 11 11 10 10 10 10
5 5 8 6 5 6 6 5 5 5 6 6 5 6 7 7 7 7 7 7 7 7 7 7 7 7 7 8 9 9 9 10 11 11 7 7 8 11 11 11 11 11 12
6 5 8 6 5 6 6 5 5 5 6 6 6 6 7 7 7 6 6 7 6 5 5 5 5 6 6 7 8 8 9 10 11 8 7 7 8 12 12 12 12 12 12
6 6 8 7 6 6 5 4 4 5 5 6 6 6 6 6 6 6 5 5 5 5 4 4 4 5 5 6 7 7 8 9 9 7 7 7 7 11 12 12 12 11 12
6 6 7 8 6 6 5 5 5 5 5 6 6 5 6 6 6 5 4 4 4 4 4 3 3 4 5 5 6 6 8 9 8 7 7 7 8 11 12 12 12 11 11
5 5 4 5 6 7 6 5 4 4 4 5 5 5 4 5 4 3 3 3 3 3 3 3 2 3 3 4 5 6 7 8 8 7 7 7 10 12 12 12 12 12 12
5 5 4 4 4 3 5 5 4 3 3 3 4 3 3 4 4 3 3 3 2 2 3 2 1 2 2 3 4 5 7 8 8 7 6 7 11 12 13 13 13 12 12
4 3 4 4 4 3 3 4 4 4 3 3 3 3 2 2 2 3 4 3 2 2 2 2 1 2 3 5 5 6 8 6 5 4 5 8 10 12 13 13 13 12 11
3 3 4 3 3 2 2 3 2 2 3 2 2 2 2 1 1 1 4 3 1 1 2 2 3 5 6 4 6 8 5 5 4 4 6 10 10 12 12 13 13 12 12
3 3 3 4 2 2 2 2 2 2 2 2 2 1 1 0 1 1 1 2 2 3 2 2 3 1 1 0 2 3 3 3 3 3 6 11 11 12 12 12 13 13 12
3 3 3 3 3 2 2 2 2 2 2 2 2 1 1 1 1 1 1 1 0 0 0 0 0 1 1 0 1 2 3 2 2 2 5 11 10 11 12 12 13 13 13
3 3 3 2 2 2 1 1 2 2 2 3 2 2 1 1 1 1 1 1 1 0 0 0 1 1 1 1 1 2 2 2 3 3 4 10 10 11 12 12 13 13 13
2 3 3 2 3 1 1 1 1 2 2 2 2 2 2 1 1 1 1 1 1 1 1 1 1 0 1 1 1 1 2 2 2 2 3 7 10 10 11 12 12 12 12
2 2 2 2 2 2 1 1 1 1 2 2 2 2 2 2 2 2 1 1 1 1 1 0 0 0 0 0 0 1 0 0 1 1 2 4 6 10 11 11 11 12 12
3 3 2 1 2 2 2 1 1 2 2 1 2 2 2 3 3 2 2 2 2 2 1 0 0 0 0 1 1 1 1 1 1 1 2 3 3 5 9 11 10 10 11
3 2 2 2 2 1 2 1 1 1 1 1 2 2 3 3 3 2 2 2 2 1 1 1 1 1 1 1 0 0 0 1 1 1 2 2 3 3 4 9 11 10 10
3 3 2 2 2 1 1 1 0 1 1 1 2 2 2 2 3 3 1 2 3 1 1 2 2 2 2 2 1 1 0 1 1 1 2 2 3 4 5 5 7 9 11
3 3 2 2 2 1 0 0 0 1 1 1 1 2 2 3 3 2 3 2 2 2 2 2 1 1 1 1 2 1 1 2 1 2 2 2 3 4 4 4 5 5 7
4 3 3 3 2 1 0 0 1 1 1 1 2 2 2 2 3 2 3 3 2 1 1 2 1 2 1 1 2 2 1 2 2 1 2 2 3 3 4 5 5 5 6
5 4 3 2 2 1 0 1 0 0 0 1 1 1 2 2 2 3 2 3 3 2 2 2 2 2 2 1 1 2 2 2 1 1 2 1 2 2 3 3 5 5 5
5 5 4 3 2 1 1 1 1 1 1 2 1 2 2 2 2 2 2 2 3 2 2 2 2 2 3 2 1 2 3 3 3 1 1 1 2 3 3 3 3 4 5
6 5 5 4 3 2 2 1 2 1 1 1 2 2 2 2 2 3 2 2 2 2 2 3 2 3 3 3 3 2 2 2 3 3 3 2 2 3 3 4 4 4 4
6 6 6 5 4 3 3 2 1 1 1 2 2 2 1 1 2 3 2 2 2 2 2 2 2 2 3 3 4 3 2 2 3 3 4 4 3 3 3 3 4 4 5
Wind_Direction
76 81 95 87 85 93 107 113 116 121 129 134 140 147 156 159 161 164 160 163 170 172 168 164 164 163 163 163 162 163 161 158 156 156 155 156 158 160 161 162 168 156 140
83 92 102 94 91 96 104 108 110 113 117 122 129 136 146 155 157 148 151 154 157 163 160 160 162 163 165 166 164 165 164 163 163 162 164 164 163 164 163 161 169 144 148
92 98 110 100 97 97 107 105 105 109 112 114 119 125 129 134 132 127 128 130 135 143 149 154 156 162 167 168 170 169 169 169 170 173 182 178 164 167 165 164 160 158 157
94 98 96 100 101 102 106 108 106 106 108 110 112 116 122 128 122 118 119 122 131 142 149 151 156 163 167 170 172 173 174 176 180 190 191 176 169 163 169 168 166 170 167
93 94 92 99 102 104 103 105 108 107 105 105 104 101 110 117 117 119 122 122 128 139 147 152 158 163 165 165 170 176 179 186 191 204 190 178 168 158 170 174 174 175 174
94 92 93 94 96 99 95 94 106 103 100 100 101 100 102 107 108 112 114 117 123 132 140 151 157 163 169 173 177 182 186 194 202 195 190 189 171 163 176 180 179 179 177
88 87 93 95 97 97 91 90 102 100 99 99 97 98 101 104 104 103 101 111 120 128 134 142 156 171 174 181 187 190 195 202 209 195 189 188 168 165 181 183 180 180 180
81 85 97 112 109 106 96 91 94 88 93 100 101 102 97 94 93 93 94 105 108 121 135 149 172 184 188 194 198 201 204 214 203 197 192 185 163 173 185 187 185 183 182
82 82 85 111 126 135 115 97 100 96 94 98 98 100 103 104 102 102 104 104 99 107 139 165 179 194 199 203 200 204 212 223 226 202 197 186 167 181 189 190 186 184 183
76 76 78 83 91 115 119 114 113 99 97 117 107 99 119 142 149 154 152 112 93 89 111 139 158 188 201 210 211 209 217 226 223 205 193 168 167 186 192 191 188 187 186
77 69 72 76 84 88 97 117 141 141 134 158 137 134 168 146 141 153 94 96 93 92 116 129 166 185 206 203 212 220 225 223 208 203 185 154 173 187 193 190 188 188 188
81 71 74 73 75 83 90 107 104 108 109 108 76 93 117 118 137 97 116 124 137 146 168 169 204 210 226 201 196 214 220 213 218 197 168 161 182 189 190 188 188 188 190
85 69 73 79 68 61 78 89 85 85 91 104 91 98 109 136 148 110 135 144 171 192 194 171 214 229 219 242 255 218 223 224 216 197 164 166 183 190 192 190 189 190 193
82 75 67 71 70 52 41 68 86 94 86 80 89 54 75 67 30 45 38 8 275 134 49 322 23 52 352 263 250 241 223 226 228 200 166 169 186 195 197 193 192 194 194
91 84 84 73 75 81 69 7 68 68 61 85 76 69 25 20 12 31 9 338 331 332 238 173 20 45 340 282 244 236 247 236 240 222 168 174 195 204 201 199 198 196 195
94 89 88 89 93 79 86 82 55 65 71 57 66 55 15 13 9 341 336 339 342 354 355 318 346 311 295 323 284 262 263 242 225 214 188 182 192 195 196 200 200 198 197
113 98 91 98 104 103 88 91 91 62 77 67 68 57 21 18 12 346 355 329 4 356 339 314 323 253 246 266 305 305 291 220 170 183 195 201 187 187 194 199 201 199 200
111 110 106 94 102 108 85 56 63 45 58 62 57 50 30 17 6 346 349 6 353 331 342 355 283 325 351 324 344 334 51 103 156 181 192 195 201 194 190 192 198 199 204
127 130 123 98 89 93 99 112 99 85 58 47 48 31 30 17 8 346 354 6 330 347 343 335 31 326 329 321 211 170 214 168 183 184 190 191 188 198 196 178 190 197 203
143 142 137 134 115 119 128 144 145 78 78 62 63 48 27 13 8 341 344 358 331 357 4 5 352 347 323 308 299 63 197 196 211 185 217 192 191 201 201 192 189 197 205
159 160 166 157 144 185 189 283 270 95 57 56 57 46 25 10 10 351 350 359 336 6 353 346 329 345 344 328 283 235 186 190 207 205 222 215 200 199 200 199 202 207 203
172 175 181 181 171 200 129 319 294 347 16 50 11 36 14 12 358 358 359 345 355 340 356 351 324 326 339 337 307 297 269 176 205 196 208 208 218 205 207 204 206 211 224
182 184 188 182 164 170 221 222 79 154 287 55 30 27 14 10 13 1 359 346 345 331 353 331 319 310 314 315 327 314 313 341 346 171 218 233 243 233 225 211 211 210 217
187 180 183 184 183 174 206 233 257 322 357 12 359 20 13 9 0 2 354 343 330 338 350 315 349 310 302 304 306 297 308 321 304 297 234 229 235 239 244 244 226 206 212
185 181 181 179 176 175 195 223 253 298 340 356 5 16 355 18 359 358 359 347 337 334 342 333 336 315 302 301 301 296 295 277 273 279 294 296 259 239 235 240 247 236 218
184 183 184 174 175 176 177 182 216 286 318 341 351 348 340 13 15 12 2 350 336 340 334 321 315 308 317 317 306 303 294 294 293 284 281 278 281 267 250 242 242 238 231
Height
1517 1515 1513 1513 1512 1512 1512 1511 1512 1512 1512 1512 1513 1513 1512 1512 1511 1510 1509 1509 1511 1513 1516 1518 1521 1523 1524 1526 1527 1528 1529 1531 1532 1533 1534 1536 1537 1538 1539 1540 1542 1543 1544
1518 1516 1515 1514 1514 1513 1513 1513 1513 1513 1513 1514 1513 1513 1512 1512 1510 1509 1509 1509 1510 1512 1515 1518 1521 1523 1524 1525 1527 1528 1529 1531 1532 1533 1534 1536 1537 1538 1539 1540 1542 1543 1544
1518 1517 1516 1515 1515 1514 1514 1514 1514 1514 1514 1514 1514 1513 1512 1512 1511 1510 1510 1510 1511 1513 1516 1519 1521 1523 1524 1525 1526 1527 1529 1530 1532 1533 1535 1537 1537 1538 1539 1540 1541 1543 1544
1520 1519 1517 1516 1516 1516 1515 1515 1515 1515 1515 1515 1514 1513 1511 1512 1512 1512 1513 1513 1514 1516 1518 1520 1521 1523 1524 1524 1526 1527 1529 1530 1531 1533 1535 1537 1538 1538 1539 1540 1541 1542 1544
1521 1520 1518 1517 1517 1517 1517 1517 1516 1516 1516 1516 1515 1514 1513 1514 1514 1515 1516 1516 1517 1518 1520 1521 1522 1523 1524 1525 1526 1527 1528 1529 1531 1533 1535 1537 1537 1537 1538 1539 1541 1542 1543
1522 1522 1520 1519 1519 1518 1518 1518 1517 1517 1517 1517 1517 1516 1516 1516 1517 1517 1518 1518 1519 1520 1521 1522 1523 1523 1524 1525 1526 1527 1528 1529 1530 1533 1534 1535 1536 1536 1537 1539 1540 1541 1543
1524 1523 1522 1520 1520 1519 1519 1519 1518 1518 1518 1518 1518 1518 1518 1519 1519 1519 1520 1520 1521 1521 1522 1522 1523 1523 1524 1525 1525 1526 1527 1528 1530 1532 1533 1534 1535 1535 1536 1538 1539 1540 1542
1525 1524 1523 1522 1521 1521 1521 1520 1519 1519 1520 1520 1520 1520 1520 1521 1521 1521 1521 1522 1522 1522 1522 1523 1523 1524 1524 1524 1524 1525 1526 1527 1529 1531 1531 1532 1532 1534 1535 1536 1538 1539 1541
1526 1525 1525 1525 1523 1522 1522 1522 1522 1521 1521 1521 1522 1522 1522 1522 1522 1523 1523 1523 1523 1523 1523 1523 1523 1523 1523 1523 1524 1524 1525 1526 1528 1529 1530 1531 1531 1532 1533 1535 1537 1538 1539
1527 1527 1526 1526 1525 1525 1524 1523 1523 1523 1522 1523 1523 1523 1523 1523 1523 1524 1524 1523 1523 1523 1523 1523 1523 1523 1523 1523 1523 1523 1524 1525 1526 1528 1528 1529 1529 1530 1532 1533 1535 1537 1538
1528 1528 1528 1527 1526 1526 1526 1525 1524 1524 1524 1524 1524 1524 1524 1525 1525 1525 1524 1524 1524 1523 1523 1523 1522 1522 1522 1522 1522 1522 1523 1524 1525 1526 1526 1526 1527 1528 1529 1531 1533 1535 1537
1529 1529 1528 1528 1527 1527 1527 1526 1526 1526 1525 1525 1525 1525 1525 1525 1525 1526 1525 1524 1524 1524 1523 1523 1522 1522 1522 1522 1522 1521 1523 1523 1524 1524 1524 1524 1525 1526 1527 1529 1531 1533 1535
1530 1530 1529 1528 1528 1528 1527 1527 1527 1527 1526 1526 1526 1526 1526 1526 1526 1526 1526 1526 1525 1524 1524 1523 1523 1523 1522 1521 1521 1521 1522 1522 1522 1522 1522 1522 1523 1524 1526 1527 1529 1531 1533
1531 1530 1530 1529 1528 1527 1527 1528 1527 1528 1527 1527 1527 1527 1527 1527 1526 1526 1526 1526 1525 1525 1524 1523 1522 1522 1521 1521 1520 1519 1520 1520 1520 1520 1519 1519 1520 1522 1523 1525 1527 1529 1531
1531 1531 1530 1529 1529 1528 1527 1528 1529 1528 1529 1528 1527 1527 1527 1527 1527 1527 1525 1525 1525 1524 1524 1523 1522 1521 1520 1520 1519 1519 1519 1518 1517 1517 1517 1517 1518 1518 1520 1523 1525 1527 1529
1531 1531 1531 1530 1529 1528 1528 1528 1528 1529 1528 1529 1528 1528 1527 1527 1526 1526 1525 1525 1525 1524 1523 1522 1521 1520 1520 1520 1519 1518 1517 1517 1516 1515 1516 1516 1517 1517 1518 1521 1524 1525 1527
1532 1531 1531 1531 1530 1529 1529 1529 1529 1530 1530 1529 1529 1528 1527 1527 1527 1526 1526 1525 1524 1524 1522 1522 1521 1521 1520 1520 1519 1518 1517 1516 1516 1516 1516 1517 1517 1517 1518 1520 1522 1524 1526
1532 1531 1531 1531 1530 1530 1529 1529 1530 1530 1530 1530 1529 1529 1528 1527 1527 1526 1526 1525 1524 1524 1523 1522 1521 1521 1520 1519 1518 1518 1517 1516 1516 1516 1516 1516 1517 1518 1519 1520 1521 1523 1524
1531 1531 1531 1531 1530 1530 1530 1530 1530 1529 1529 1530 1529 1529 1528 1527 1527 1526 1526 1525 1524 1524 1523 1522 1521 1521 1520 1519 1518 1517 1517 1516 1516 1516 1516 1516 1517 1517 1518 1519 1520 1521 1523
1531 1531 1531 1530 1530 1530 1530 1530 1530 1530 1530 1530 1529 1528 1528 1528 1527 1526 1526 1524 1524 1523 1522 1521 1520 1520 1520 1519 1519 1518 1517 1517 1516 1516 1516 1516 1516 1517 1518 1519 1519 1519 1520
1531 1530 1531 1530 1530 1530 1530 1531 1531 1531 1530 1530 1530 1529 1528 1527 1527 1526 1526 1524 1524 1523 1522 1521 1520 1520 1519 1519 1519 1518 1517 1517 1516 1516 1516 1516 1516 1516 1517 1517 1517 1518 1518
1530 1530 1530 1530 1530 1530 1530 1530 1530 1531 1531 1530 1530 1529 1528 1527 1526 1526 1525 1524 1523 1522 1521 1520 1520 1520 1519 1519 1519 1518 1517 1517 1516 1516 1515 1515 1515 1515 1516 1516 1515 1515 1516
1529 1529 1530 1530 1530 1530 1530 1530 1530 1530 1530 1530 1530 1529 1528 1527 1526 1526 1525 1524 1523 1523 1522 1520 1519 1519 1519 1519 1518 1518 1517 1516 1516 1516 1515 1515 1514 1514 1514 1514 1514 1514 1514
1528 1528 1528 1529 1529 1529 1530 1530 1530 1530 1531 1530 1530 1529 1528 1527 1526 1525 1524 1523 1522 1523 1521 1521 1520 1519 1519 1519 1518 1517 1517 1517 1516 1515 1515 1514 1513 1513 1513 1513 1513 1512 1512
1526 1527 1527 1527 1528 1528 1529 1529 1530 1530 1530 1530 1529 1528 1528 1527 1526 1525 1524 1523 1522 1522 1521 1520 1519 1518 1518 1518 1518 1517 1516 1516 1515 1515 1514 1513 1512 1512 1511 1511 1511 1511 1510
1524 1525 1526 1526 1526 1527 1527 1528 1529 1529 1529 1529 1529 1528 1528 1527 1526 1525 1524 1523 1522 1521 1520 1519 1518 1518 1517 1516 1516 1516 1516 1515 1515 1514 1513 1512 1511 1510 1510 1509 1509 1508 1508